Location: Stony Plain
(53.5279°N, 114.0019°W)
Time: 20:06:58
(UTC-06:00)

ISS - Visible Passes

Search period start: 20 October 2019 00:00
Search period end: 30 October 2019 00:00
Orbit: 411 x 421 km, 51.6° (Epoch: 21 October)

Date Brightness Start Highest point End Pass type
(mag) Time Alt. Az. Time Alt. Az. Time Alt. Az.
25 Oct -0.9 07:21:15 10° S 07:23:29 17° SE 07:25:43 10° ESE visible
26 Oct -0.8 06:33:50 10° SSE 06:35:06 12° SE 06:36:22 10° ESE visible
27 Oct -1.9 07:19:41 10° SW 07:22:39 29° SSE 07:25:36 10° E visible
28 Oct -1.6 06:32:07 13° SSW 06:34:10 22° SSE 06:36:49 10° E visible
29 Oct -1.2 05:45:47 16° SE 05:45:47 16° SE 05:47:50 10° ESE visible
29 Oct -2.8 07:18:42 10° WSW 07:21:53 45° SSE 07:25:07 10° E visible
